[[{"header":{"parameterUnit":"m.s-1","parameterCategory":1,"la1":30.2991,"la2":30.254,"lo1":-89.0895,"lo2":-89.0444,"dy":0.0017,"dx":0.0017,"nx":28,"ny":28,"refTime":"2024-08-07T09:00:00:Z","depth":0,"parameterNumber":2,"parameterNumberName":"U-component_of_WINDS"},"data":[0,0,0,0,0,0,0,0,0,0,0,0,0,0,0,0,0,0,0,0,0,0,0,0,0,0,0,0,0,0,0,0,0,0,0,0,0,0,0,0,0,0,0,0,0,0,0,0,0,0,0,0,0,0,0,0,0,0,2.4555,2.4555,0,2.4631,2.4632,2.4633,2.4627,2.4626,2.4625,2.4624,2.4708,2.4711,2.4714,0,0,0,0,0,0,0,0,0,0,0,0,0,2.441,2.4413,2.4555,2.4556,2.4556,2.4631,2.4632,2.4633,2.4627,2.4626,2.4625,2.4623,2.4707,2.471,2.4714,0,0,0,0,0,0,0,0,0,0,0,0,0,2.4479,2.4414,2.4554,2.4562,2.4564,2.4631,2.4632,2.4634,2.4628,2.4626,2.4624,2.4623,2.4705,2.471,2.4715,2.4781,0,0,2.473,2.4732,0,0,0,0,0,0,0,0,2.4475,2.4484,2.456,2.4562,2.4564,2.4618,2.4612,2.4683,2.4628,2.4604,2.4624,2.4622,2.468,2.4687,2.4705,2.4785,2.4788,2.4731,2.4734,2.4736,2.4737,0,0,0,0,0,0,0,2.447,2.4481,2.4585,2.4561,2.4564,2.4565,2.4572,2.4626,2.4651,2.4606,2.4605,2.4614,2.468,2.47,2.4707,2.4789,2.4731,2.4735,2.4738,2.474,2.4933,2.4935,0,0,0,0,0,0,2.4463,2.4477,2.4583,2.4587,2.4514,2.4569,2.4577,2.4602,2.465,2.4655,2.4616,2.4614,2.4692,2.4701,2.471,2.4794,2.4736,2.474,2.4743,2.4931,2.4933,2.4936,0,0,0,0,0,0,2.446,2.4472,2.458,2.4532,2.4546,2.4573,2.4601,2.4605,2.4625,2.4658,2.4663,2.4631,2.4691,2.4703,2.4764,2.4796,2.4743,2.4747,2.4928,2.4932,2.4935,2.4959,0,0,0,0,0,0,2.4455,2.4471,2.4494,2.4533,2.4548,2.463,2.4603,2.4608,2.4633,2.4631,2.4673,2.4679,2.4691,2.4757,2.4769,2.4802,2.4751,2.4926,2.493,2.4933,2.4956,2.4963,2.4969,0,0,0,0,0,2.445,2.4498,2.4495,2.4508,2.4578,2.4632,2.4641,2.4653,2.4635,2.466,2.4682,2.4677,2.479,2.4763,2.4777,2.4812,2.4924,2.4929,2.4933,2.4953,2.4962,2.4969,0,0,0,0,0,0,2.4464,2.4503,2.4501,2.4562,2.4594,2.4631,2.4663,2.4661,2.47,2.4696,2.4711,2.4721,2.4783,2.4803,2.4772,2.4881,2.4855,2.4863,2.4865,2.4874,2.4881,2.4876,2.4755,0,0,0,0,0,2.4473,2.4512,2.4545,2.4597,2.4612,2.4635,2.4659,2.4665,2.47,2.4713,2.4739,2.4775,2.4819,2.4847,2.4889,2.4958,2.497,2.499,2.4997,2.5002,2.5009,2.5053,2.5063,2.4951,2.4951,2.4951,0,0,2.4495,2.4521,2.4545,2.46,2.4625,2.4668,2.4646,2.4691,2.4724,2.4721,2.4781,2.4801,2.4842,2.4909,2.494,2.4928,2.5043,2.5008,2.5012,2.5017,2.5059,2.5069,2.5079,2.4955,2.4954,2.4954,0,0,2.4556,2.4578,2.4625,2.4651,2.469,2.4705,2.4716,2.4755,2.4768,2.4828,2.4828,2.4868,2.4942,2.4973,2.4998,2.5074,2.5073,2.5088,2.5123,2.5165,2.5174,2.5182,2.5214,2.5224,2.5094,2.5094,2.5094,0,2.4578,2.464,2.4649,2.4696,2.4722,2.472,2.4771,2.4796,2.4847,2.4867,2.4852,2.4948,2.4974,2.5051,2.507,2.5089,2.5106,2.5083,2.5172,2.518,2.5188,2.5218,2.5229,2.5096,2.5096,2.5096,2.5096,0,2.4667,2.4711,2.4744,2.4794,2.4824,2.4871,2.4891,2.4921,2.4926,2.4944,2.5008,2.504,2.5091,2.5109,2.5113,2.5187,2.5179,2.5168,2.5143,2.52,2.5229,2.524,2.5099,2.5098,2.5098,2.5097,0,0,2.4738,2.4793,2.4806,2.483,2.4874,2.491,2.4959,2.5008,2.5035,2.5071,2.5116,2.518,2.5171,2.52,2.5209,2.5245,2.5309,2.523,2.5231,2.5247,2.5398,2.5408,2.5421,2.5308,2.531,2.5312,2.5396,0,2.4806,2.4892,2.4904,2.4982,2.5025,2.5026,2.507,2.5103,2.5122,2.5164,2.5185,2.5232,2.5214,2.5233,2.5268,2.5293,2.534,2.5287,2.5354,2.5356,2.5346,2.5435,2.5445,2.5523,2.5407,2.5408,2.541,0,2.4896,2.4935,2.5017,2.5059,2.5078,2.5117,2.5165,2.5203,2.5243,2.5255,2.5288,2.5293,2.5349,2.532,2.5399,2.5363,2.5391,2.5408,2.5412,2.5421,2.5388,2.545,2.5547,2.556,2.5427,2.5425,2.5424,0,2.4945,2.5017,2.5077,2.5097,2.5146,2.5175,2.5197,2.5235,2.5265,2.5307,2.5328,2.5376,2.5404,2.5443,2.5463,2.5439,2.5543,2.5514,2.5557,2.5557,2.558,2.5579,2.5687,2.5593,2.5593,2.5593,2.5593,0,2.5021,2.5072,2.51,2.5137,2.5196,2.521,2.5269,2.5291,2.5325,2.5369,2.5372,2.5414,2.5436,2.5482,2.5498,2.5564,2.5575,2.5589,2.5593,2.5591,2.5589,2.5611,2.5607,2.5596,2.5595,2.5595,2.5594,0,2.5085,2.5105,2.5171,2.5213,2.5225,2.5267,2.5304,2.5342,2.5361,2.5417,2.5431,2.5462,2.5517,2.554,2.5607,2.5618,2.5695,2.5694,2.5682,2.5684,2.5727,2.5724,2.5855,2.5875,2.5765,2.5766,2.5766,0,2.5134,2.5174,2.522,2.525,2.5273,2.5319,2.535,2.5367,2.54,2.545,2.5483,2.5538,2.5582,2.567,2.5701,2.5754,2.5756,2.5798,2.5764,2.5761,2.5761,2.576,2.5766,2.5805,2.5806,2.5807,2.5808,0,2.522,2.5229,2.5272,2.532,2.5357,2.5396,2.5434,2.5458,2.5482,2.5519,2.5574,2.5609,2.5679,2.5734,2.579,2.5816,2.5818,2.5818,2.5832,2.5831,2.5824,2.5832,2.5702,2.5816,2.5815,2.5814,2.5814,2.5814,2.5281,2.5318,2.5357,2.5407,2.5437,2.5474,2.5512,2.5537,2.5583,2.564,2.5648,2.5709,2.5752,2.5826,2.5855,2.5905,2.5895,2.5913,2.5919,2.5924,2.5929,2.5813,2.5915,2.5915,2.5915,2.5914,2.5914,0,2.537,2.5396,2.5441,2.5495,2.5535,2.5531,2.5574,2.5609,2.5662,2.5701,2.5746,2.5812,2.5867,2.5902,2.5959,2.5993,2.5996,2.6007,2.6007,2.6014,2.5932,2.5917,2.6005,2.6005,2.6005,2.6005,2.6005,2.6005,2.5421,2.5485,2.5499,2.558,2.5606,2.5664,2.569,2.5725,2.5757,2.5831,2.5876,2.5898,2.5938,2.5998,2.605,2.6059,2.6081,2.6095,2.6104,2.6028,2.6019,2.601,2.5996,2.6098,2.6099,2.6182,2.6182,2.6183]},{"header":{"parameterUnit":"m.s-1","parameterCategory":1,"la1":30.2991,"la2":30.254,"lo1":-89.0895,"lo2":-89.0444,"dy":0.0017,"dx":0.0017,"nx":28,"ny":28,"refTime":"2024-08-07T09:00:00:Z","depth":0,"parameterNumber":3,"parameterNumberName":"V-component_of_WINDS"},"data":[0,0,0,0,0,0,0,0,0,0,0,0,0,0,0,0,0,0,0,0,0,0,0,0,0,0,0,0,0,0,0,0,0,0,0,0,0,0,0,0,0,0,0,0,0,0,0,0,0,0,0,0,0,0,0,0,0,0,-0.277,-0.2768,0,-0.2606,-0.2604,-0.2603,-0.2635,-0.2638,-0.2641,-0.2644,-0.2471,-0.2464,-0.2456,0,0,0,0,0,0,0,0,0,0,0,0,0,-0.3108,-0.3101,-0.277,-0.2768,-0.2766,-0.2607,-0.2604,-0.2602,-0.2634,-0.2638,-0.2642,-0.2645,-0.2473,-0.2465,-0.2456,0,0,0,0,0,0,0,0,0,0,0,0,0,-0.2954,-0.3099,-0.2771,-0.2763,-0.2761,-0.2607,-0.2604,-0.2601,-0.2634,-0.2638,-0.2643,-0.2647,-0.2476,-0.2466,-0.2455,-0.2296,0,0,-0.2421,-0.2416,0,0,0,0,0,0,0,0,-0.2963,-0.2942,-0.2766,-0.2764,-0.2761,-0.2646,-0.266,-0.2499,-0.2633,-0.2682,-0.2644,-0.2649,-0.2525,-0.251,-0.247,-0.2288,-0.2281,-0.242,-0.2413,-0.2408,-0.2405,0,0,0,0,0,0,0,-0.2973,-0.2949,-0.2705,-0.2764,-0.276,-0.2767,-0.275,-0.263,-0.258,-0.2678,-0.268,-0.266,-0.2524,-0.248,-0.2466,-0.2278,-0.242,-0.241,-0.2403,-0.2399,-0.196,-0.1955,0,0,0,0,0,0,-0.2987,-0.2958,-0.2711,-0.27,-0.2875,-0.2757,-0.2738,-0.2678,-0.2582,-0.2571,-0.2657,-0.2662,-0.2497,-0.2479,-0.246,-0.2269,-0.2408,-0.2398,-0.2392,-0.1965,-0.1958,-0.1953,0,0,0,0,0,0,-0.2994,-0.2965,-0.2717,-0.2829,-0.2798,-0.2747,-0.2679,-0.2672,-0.2628,-0.2566,-0.2557,-0.2621,-0.25,-0.2475,-0.2337,-0.2263,-0.2393,-0.2383,-0.197,-0.1963,-0.1956,-0.1885,0,0,0,0,0,0,-0.3004,-0.2967,-0.2907,-0.2828,-0.2792,-0.2598,-0.2674,-0.2666,-0.261,-0.2616,-0.253,-0.2519,-0.2501,-0.2354,-0.2326,-0.225,-0.2374,-0.1977,-0.1967,-0.1958,-0.1893,-0.1876,-0.1861,0,0,0,0,0,-0.3016,-0.2892,-0.2904,-0.2874,-0.2717,-0.2594,-0.2573,-0.2556,-0.2604,-0.2542,-0.2502,-0.2522,-0.2276,-0.2339,-0.2309,-0.2228,-0.1981,-0.197,-0.1959,-0.1901,-0.1879,-0.1861,0,0,0,0,0,0,-0.2962,-0.2882,-0.2894,-0.2741,-0.2674,-0.26,-0.2522,-0.2534,-0.2451,-0.246,-0.2441,-0.2421,-0.2281,-0.2241,-0.2313,-0.207,-0.2135,-0.2117,-0.2102,-0.208,-0.2064,-0.2077,-0.2365,0,0,0,0,0,-0.2933,-0.2842,-0.2776,-0.2647,-0.2614,-0.2573,-0.2519,-0.2512,-0.2441,-0.2413,-0.2363,-0.2292,-0.2199,-0.2137,-0.2048,-0.1888,-0.187,-0.1818,-0.1801,-0.1788,-0.1773,-0.1686,-0.1662,-0.1916,-0.1916,-0.1916,0,0,-0.2871,-0.2816,-0.2759,-0.2635,-0.2583,-0.2487,-0.2549,-0.2445,-0.2374,-0.2396,-0.2264,-0.2224,-0.2144,-0.1995,-0.1926,-0.1957,-0.1699,-0.1774,-0.1764,-0.1755,-0.1672,-0.1648,-0.1627,-0.1908,-0.191,-0.1911,0,0,-0.2709,-0.2658,-0.2547,-0.2493,-0.2414,-0.2388,-0.2361,-0.2285,-0.226,-0.2127,-0.2142,-0.2056,-0.1896,-0.1839,-0.1789,-0.1607,-0.1622,-0.1579,-0.1492,-0.1408,-0.1388,-0.137,-0.1305,-0.1282,-0.1563,-0.1563,-0.1563,0,-0.2642,-0.25,-0.2487,-0.2382,-0.2327,-0.2346,-0.2232,-0.218,-0.2074,-0.2036,-0.2072,-0.1873,-0.182,-0.1658,-0.1614,-0.1572,-0.1541,-0.1588,-0.1392,-0.1374,-0.1357,-0.1295,-0.1271,-0.1558,-0.1559,-0.1559,-0.156,0,-0.2421,-0.2322,-0.2241,-0.2142,-0.2078,-0.1969,-0.1938,-0.1875,-0.1874,-0.1845,-0.1709,-0.1647,-0.1546,-0.1507,-0.1503,-0.1344,-0.1366,-0.1397,-0.1462,-0.1328,-0.127,-0.1246,-0.1552,-0.1553,-0.1555,-0.1556,0,0,-0.2219,-0.2115,-0.2086,-0.2041,-0.1955,-0.1878,-0.177,-0.1674,-0.162,-0.1546,-0.1455,-0.132,-0.1349,-0.1292,-0.1283,-0.1209,-0.107,-0.125,-0.1248,-0.1218,-0.0891,-0.0867,-0.084,-0.108,-0.1076,-0.1072,-0.0897,0,-0.205,-0.1861,-0.1847,-0.1676,-0.1585,-0.1602,-0.1508,-0.1445,-0.1414,-0.1332,-0.1298,-0.1203,-0.1248,-0.1214,-0.1142,-0.1102,-0.1004,-0.1115,-0.0994,-0.099,-0.1013,-0.081,-0.0784,-0.0623,-0.0875,-0.0871,-0.0868,0,-0.1826,-0.1749,-0.157,-0.1499,-0.146,-0.1375,-0.1286,-0.1207,-0.1136,-0.1119,-0.1057,-0.1058,-0.0947,-0.1016,-0.0862,-0.0938,-0.0888,-0.0861,-0.0854,-0.0842,-0.092,-0.0792,-0.0571,-0.0546,-0.0832,-0.0835,-0.0837,0,-0.1698,-0.1548,-0.1422,-0.1384,-0.1297,-0.1237,-0.1198,-0.1132,-0.1075,-0.0996,-0.0959,-0.0868,-0.0818,-0.0747,-0.0724,-0.0777,-0.057,-0.0638,-0.0552,-0.0553,-0.0507,-0.0511,-0.0275,-0.0476,-0.0476,-0.0476,-0.0477,0,-0.151,-0.1399,-0.1364,-0.1286,-0.1163,-0.1148,-0.1026,-0.099,-0.0931,-0.0845,-0.0854,-0.0774,-0.0748,-0.0663,-0.0644,-0.052,-0.0497,-0.0479,-0.0476,-0.0478,-0.0481,-0.0445,-0.0455,-0.047,-0.0471,-0.0473,-0.0474,0,-0.1344,-0.1316,-0.118,-0.111,-0.109,-0.1002,-0.0942,-0.0866,-0.0839,-0.0731,-0.0705,-0.066,-0.0561,-0.0531,-0.0411,-0.0398,-0.0252,-0.0259,-0.0277,-0.0276,-0.0193,-0.0201,0.0074,0.0111,-0.0114,-0.0112,-0.011,0,-0.1226,-0.1142,-0.1064,-0.1009,-0.0968,-0.0878,-0.0821,-0.0803,-0.0742,-0.0656,-0.0591,-0.0493,-0.0414,-0.0255,-0.0211,-0.0119,-0.0123,-0.0033,-0.0109,-0.0115,-0.0122,-0.0127,-0.0119,-0.0019,-0.0016,-0.0014,-0.0013,0,-0.1019,-0.101,-0.0928,-0.0841,-0.0773,-0.0703,-0.0636,-0.059,-0.0562,-0.0494,-0.0394,-0.0333,-0.0211,-0.0114,-0.0022,0.002,0.0009,0.001,0.0035,0.0033,0.0019,0.0028,-0.0238,0.0004,0.0003,0.0001,0.0001,-0.0,-0.0874,-0.08,-0.0735,-0.0643,-0.0591,-0.0529,-0.0455,-0.0419,-0.0336,-0.0237,-0.0231,-0.0122,-0.0054,0.0069,0.0115,0.0201,0.0175,0.0211,0.022,0.0228,0.0235,0.0005,0.0218,0.0217,0.0217,0.0217,0.0216,0,-0.0668,-0.0627,-0.0543,-0.045,-0.0378,-0.0397,-0.0324,-0.0262,-0.0167,-0.0103,-0.0026,0.0089,0.0182,0.0233,0.0326,0.0385,0.0382,0.0409,0.0405,0.0415,0.0253,0.0222,0.041,0.041,0.041,0.041,0.0409,0.0409,-0.0552,-0.0429,-0.0412,-0.0263,-0.0223,-0.0118,-0.0075,-0.0017,0.0034,0.0162,0.0239,0.027,0.0329,0.0426,0.0511,0.0524,0.0559,0.0589,0.0598,0.0446,0.0426,0.0408,0.0379,0.0596,0.0596,0.0753,0.0754,0.0755]}]]